ZTF彗星

C/2020 V2 ( ZTF )

English version
Home page
Updated on March 4, 2025

---------------------------------------------------------------------

・ プロフィール

発見日 2020年11月2日
発見光度 19.0等
発見者 Zwicky Transient Facility

・ 写真集

・ 軌道要素

Epoch 2024 Oct. 17.0 TT = JDT 2460600.5
T 2023 May 8.47335 TT                                   Pike
q   2.2283469            (2000.0)            P               Q
z  -0.0003866      Peri.  162.41855     +0.69765809     +0.59411662
 +/-0.0000002      Node   212.37849     +0.53396879     -0.05861641
e   1.0008615      Incl.  131.61290     +0.47765105     -0.80224033
From 5619 observations 2020 Apr. 18-2024 Dec. 18, mean residual 0".9.

・ 星図

・ 光度変化

        m1 = -19.4 + 5 logΔ + 35   log r  [    ,-910]  (              〜2020年11月 9日)
        m1 =   4.0 + 5 logΔ + 10.0 log r  [-910,    ]  (2020年11月 9日〜              )

---------------------------------------------------------------------

軌道要素はM.P.E.C. 2025-A40に掲載されたものです。
星図はステラナビゲータ Ver.10 (アストロアーツ) で作成したものです。
光度グラフはComet for Windowsで作成したものです。

---------------------------------------------------------------------

Copyright(C) Seiichi Yoshida (comet@aerith.net). All rights reserved.